Погода в Амосовке

Россия / Курская область     51°30′46″N   36°11′14″E
темп.,
°C
ветер,
м/с
пор.,
м/с
влажн.,
%
обл.,
%
осадки,
мм/ч
давл.,
гПа
погр.,
м
26 июля, пн
пн2600:00+19вюв3555100 0.0 1022106
03:00+19юв345533 0.0 102295
06:00+16юв22685 0.0 102316
09:00+23юв125023 0.0 1023406
12:00+26в22378 0.0 10231924
15:00+27в323622 0.0 10222211
18:00+27вюв324114 0.0 1021896
21:00+21вюв22503 0.0 102212
27 июля, вт
вт2700:00+19в22554 0.0 102215
03:00+17вюв22625 0.0 102314
06:00+17юв226692 0.0 102222
09:00+24ююз22487 0.0 1022364
12:00+28ююз11365 0.0 10212008
15:00+30з113113 0.0 10202802
18:00+29сз113429 0.0 10192162
21:00+21всв225288 0.0 101914
28 июля, ср
ср2800:00+23юв334665 0.0 101950
03:00+18ю345211 0.0 101847
06:00+19ю365388 0.0 101792
09:00+21ю3653100 0.0 1017180
12:00+26ююз5842100 0.0 1016527
15:00+28ююз6840100 0.0 10141568
18:00+25ю595286 0.1 1013559
21:00+18зюз2389100 2.4 101446
29 июля, чт
чт2900:00+18ююз41092100 0.4 1012238
03:00+17з37950 0.4 1011122
06:00+18зсз11905 0.0 101117
09:00+24з11685 0.0 1011353
12:00+29юз34468 0.0 10101859
15:00+31з463672 0.0 10092522
18:00+29зсз554896 0.1 1007860
21:00+20зюз51191100 4.1 1010239
30 июля, пт
пт3000:00+19зсз2284100 0.7 100836
03:00+18зюз229499 0.9 100831
06:00+18ссз24952 0.0 1009110
09:00+23ссз34740 0.0 1009572
12:00+27зсз345633 0.0 10091356
15:00+28зсз554941 0.0 10092016
18:00+27зсз35502 0.0 10091638
21:00+23сз35650 0.0 101081